Wind_Speed
31 31 31 30 30 29 29 30 30 30 30 30 31 31 32 32 33 34 36 36 37 38 38 38 38 38 38 38 38 38 38 38 38 37 38 38 39 40 40 40 40 40 40
32 32 32 32 31 31 30 29 30 30 30 30 31 31 31 32 34 34 36 36 36 36 37 38 38 38 39 39 39 39 40 39 39 39 39 39 39 40 40 40 41 41 41
32 33 33 33 33 32 31 30 30 30 30 30 31 31 31 32 33 34 35 35 36 37 37 38 38 39 39 39 39 39 40 40 40 40 41 41 41 41 42 42 42 42 42
32 32 32 33 33 32 32 31 31 31 31 31 31 31 31 32 33 33 34 35 36 37 37 37 38 39 39 40 39 39 39 39 39 39 40 41 42 42 42 42 43 44 45
33 33 32 32 33 33 33 32 32 32 32 32 32 32 32 32 33 33 34 35 37 38 37 37 38 38 39 39 39 39 39 40 40 40 40 40 41 42 42 43 43 44 45
33 33 33 33 33 33 33 33 33 33 32 33 33 32 32 33 34 34 35 36 36 37 37 37 39 39 39 39 40 40 40 41 40 41 41 41 42 43 43 43 43 44 45
33 33 33 33 34 33 33 33 33 33 33 33 33 33 33 33 33 34 34 35 36 36 37 38 39 40 40 40 41 42 42 42 41 42 42 42 42 42 43 44 45 45 45
33 34 34 33 34 34 34 34 34 33 33 33 34 34 33 33 34 34 34 33 34 36 37 39 39 38 39 39 40 41 42 42 41 42 42 43 43 43 43 44 45 46 46
32 33 34 34 33 33 34 34 34 33 33 33 33 34 33 33 34 34 34 34 34 34 36 38 38 38 39 40 41 41 42 43 43 42 42 42 43 44 44 45 46 47 47
32 33 33 33 33 33 33 33 34 34 34 33 33 33 33 33 34 34 34 34 34 35 36 37 38 38 40 41 41 42 42 43 43 43 43 43 43 43 45 46 47 48 48
31 32 32 32 33 33 33 33 33 34 33 33 33 33 33 34 34 34 33 33 34 35 36 36 36 37 38 39 40 41 41 42 43 43 44 44 44 44 45 46 47 47 48
31 32 33 33 33 33 33 34 34 33 33 33 33 34 34 34 34 33 33 33 33 34 35 35 35 36 36 37 39 41 42 42 43 43 43 44 45 45 45 46 47 47 47
31 32 34 34 34 34 34 34 34 34 33 33 34 34 34 34 34 34 34 34 34 34 34 35 35 35 36 37 38 40 42 42 43 43 44 44 44 45 46 46 46 46 46
32 33 34 34 34 35 35 35 34 34 34 34 34 34 34 34 34 34 34 34 34 34 35 36 36 35 36 37 37 38 40 41 42 43 43 44 45 45 46 46 46 46 46
32 32 33 34 35 34 35 34 34 34 34 34 34 34 34 34 34 34 34 35 35 35 35 35 36 36 36 37 38 38 39 41 41 43 44 44 45 46 46 47 47 47 47
32 33 33 34 34 34 34 34 34 34 34 35 35 35 35 35 35 35 35 36 36 35 35 36 36 37 37 38 39 40 40 41 42 43 44 44 45 46 46 46 46 46 46
31 32 33 34 34 34 34 33 33 34 35 35 35 36 36 36 36 36 36 36 36 36 36 37 37 37 38 38 39 41 41 41 42 43 43 44 45 45 45 45 45 46 46
31 32 33 33 34 35 34 34 34 34 35 36 36 37 36 37 37 36 36 36 36 37 37 38 38 38 38 39 39 40 40 40 41 42 43 43 43 44 44 45 45 46 47
32 33 34 34 34 35 35 34 34 34 35 36 36 36 37 36 36 36 36 37 37 38 38 39 39 39 39 39 39 40 39 40 40 41 42 43 43 43 44 45 45 46 46
32 33 34 34 34 35 35 35 35 34 34 35 35 35 35 35 35 36 36 36 37 38 39 39 40 40 39 40 39 40 40 40 40 41 42 43 44 44 44 45 45 46 46
32 33 33 34 34 35 35 36 35 35 35 34 34 35 35 35 35 35 36 36 36 37 37 38 38 38 38 38 39 39 40 41 41 41 41 42 43 44 44 45 45 45 45
32 32 33 33 34 35 35 36 36 35 35 35 35 36 35 35 35 35 35 35 35 36 36 36 37 37 37 37 38 39 39 40 40 41 41 41 42 43 44 44 44 45 45
32 33 33 34 35 35 36 37 37 36 36 36 36 36 35 35 35 35 35 35 35 36 36 37 37 37 37 38 38 38 39 39 39 40 40 41 41 42 43 43 44 45 46
32 32 33 34 35 35 36 37 38 37 36 35 35 35 35 35 35 35 35 36 37 37 37 38 38 38 38 38 39 39 40 40 40 40 40 40 41 42 43 43 43 44 44
31 32 32 32 33 34 34 35 36 36 35 35 34 35 35 35 35 35 36 36 36 37 37 37 37 37 38 38 39 39 39 40 40 40 40 41 41 42 42 43 43 43 43
30 31 31 31 31 31 31 32 33 34 34 34 34 34 35 35 35 36 36 36 36 36 37 37 37 37 37 37 38 39 39 39 39 39 40 40 41 41 42 42 42 42 41
Wind_Direction
260 260 259 260 260 262 263 260 260 260 260 259 258 257 257 256 254 253 251 250 250 249 248 248 249 249 248 248 248 249 248 247 248 250 249 250 250 249 249 250 251 252 252
258 258 259 260 260 262 261 260 260 260 261 259 258 258 258 257 255 255 252 250 250 249 248 249 249 249 249 248 249 250 248 248 250 250 251 252 252 251 252 252 252 252 253
259 258 259 260 260 261 259 260 260 260 261 259 258 258 260 259 257 256 254 252 252 251 252 249 250 250 250 250 249 248 247 249 251 252 253 254 255 254 252 253 253 254 253
259 259 260 260 260 260 258 258 260 260 260 260 260 261 260 260 258 256 254 254 255 253 252 250 251 250 250 250 248 248 248 248 250 252 252 254 255 255 254 254 254 253 254
258 259 259 259 259 258 257 258 258 259 259 260 261 262 262 260 258 257 255 255 255 253 253 252 251 250 249 248 248 248 248 249 250 252 253 254 255 255 255 255 254 254 254
257 257 257 257 258 257 257 258 258 259 259 260 261 262 262 261 260 259 259 256 254 253 253 254 251 250 248 248 248 248 249 250 250 252 253 255 256 255 256 255 255 255 256
256 256 255 257 257 258 258 258 259 259 259 260 260 261 262 261 263 262 259 257 254 253 253 254 251 249 248 248 248 248 250 251 251 252 253 255 256 257 256 256 256 256 256
255 254 254 256 257 257 258 258 258 259 260 260 259 260 261 261 263 263 260 258 256 255 254 252 250 249 248 249 250 250 251 251 251 253 254 255 256 257 257 257 257 257 256
254 254 255 256 257 257 257 257 258 260 261 261 259 258 259 260 261 261 260 260 258 257 255 254 253 251 249 250 252 251 251 251 252 253 255 256 256 257 257 258 258 258 258
253 254 255 256 256 257 257 256 258 260 261 261 259 259 259 259 260 259 258 258 257 256 255 255 254 252 251 250 251 251 252 253 253 254 256 256 257 257 258 258 259 260 260
252 253 253 255 257 257 258 257 258 260 261 261 261 260 259 259 259 260 260 259 259 258 257 254 253 253 252 252 252 251 252 254 254 255 256 258 258 258 259 260 261 262 262
253 253 254 254 256 257 259 258 258 259 259 260 261 261 260 259 260 260 261 261 260 259 257 255 255 255 255 255 255 254 254 255 256 256 257 259 259 260 260 261 262 263 263
254 255 255 256 257 257 258 258 258 259 259 259 261 261 260 261 261 261 261 260 260 260 257 255 257 257 258 258 258 258 257 257 258 259 259 260 261 262 262 263 263 264 264
256 256 256 256 257 257 257 257 258 258 258 260 261 261 261 262 262 262 261 261 260 259 258 258 259 259 259 259 260 259 259 260 260 260 261 262 262 262 263 264 264 265 265
258 258 258 258 257 257 256 257 258 257 258 259 260 260 262 263 263 263 262 261 260 260 259 259 259 260 260 261 260 260 261 261 261 261 261 262 263 263 263 264 264 264 264
257 258 258 259 259 258 258 259 259 259 259 259 260 261 263 263 264 263 262 261 260 260 260 261 261 262 262 262 262 262 263 263 262 263 262 263 263 264 263 263 264 264 264
255 256 256 257 258 259 259 260 259 260 260 260 261 261 262 263 264 263 261 260 260 259 260 261 262 263 263 263 263 263 264 264 263 263 263 264 264 265 263 264 265 265 266
254 255 256 256 257 258 258 258 259 260 261 261 262 262 263 263 263 262 260 261 261 260 261 262 263 264 264 264 265 265 265 265 265 264 265 265 265 265 265 265 266 268 268
255 256 256 257 258 259 258 257 258 260 261 262 263 264 264 264 264 263 261 262 262 262 263 264 264 265 266 267 268 268 268 267 267 267 266 265 265 266 266 267 267 268 269
258 258 258 258 259 259 258 258 259 260 261 262 263 264 264 264 264 263 262 262 263 263 264 265 266 266 267 268 269 269 269 269 269 268 267 267 266 267 268 268 268 269 269
260 260 260 260 260 260 259 259 259 260 262 263 263 264 264 264 263 263 262 263 263 264 265 266 266 266 268 269 268 269 269 270 270 270 269 268 268 268 270 270 269 269 268
262 262 262 261 261 261 261 261 260 261 263 264 264 264 263 263 263 262 263 264 265 266 266 267 267 268 269 269 269 268 270 271 271 271 270 269 269 269 270 271 270 270 268
264 265 266 265 264 264 263 263 262 262 264 264 264 263 262 262 263 263 263 265 267 268 268 268 269 270 269 269 269 269 270 270 270 271 270 269 269 269 270 271 271 271 270
267 268 268 268 267 265 265 264 264 264 264 264 264 263 262 262 263 264 265 265 267 268 270 270 271 270 270 270 269 270 270 270 270 270 270 269 269 270 271 271 272 272 271
268 269 269 269 268 267 266 265 265 265 265 264 263 263 263 262 263 264 265 266 267 268 270 271 271 271 271 271 272 271 271 271 271 271 271 270 270 271 272 272 273 272 272
268 269 269 269 268 267 266 266 266 266 266 265 264 264 264 264 264 265 265 265 266 268 269 270 271 271 272 272 272 272 272 273 273 272 272 272 272 272 272 273 273 272 272
Height
5723 5724 5724 5724 5725 5726 5726 5726 5727 5728 5728 5729 5730 5731 5732 5733 5734 5735 5736 5737 5739 5741 5744 5746 5748 5750 5753 5755 5756 5758 5761 5764 5766 5768 5770 5772 5774 5776 5778 5780 5781 5782 5783
5715 5715 5716 5716 5717 5718 5718 5718 5719 5720 5721 5721 5722 5723 5724 5724 5725 5726 5727 5729 5731 5733 5735 5737 5740 5742 5744 5746 5748 5750 5753 5755 5757 5759 5761 5763 5765 5767 5769 5770 5771 5773 5774
5707 5707 5708 5708 5709 5709 5710 5711 5711 5712 5713 5713 5714 5715 5716 5716 5717 5718 5719 5721 5723 5725 5726 5729 5731 5733 5735 5737 5739 5741 5743 5745 5747 5749 5751 5753 5755 5757 5759 5760 5761 5762 5764
5698 5699 5699 5699 5700 5701 5701 5702 5703 5704 5705 5705 5706 5707 5708 5709 5709 5710 5711 5712 5714 5715 5717 5720 5721 5723 5725 5727 5729 5731 5733 5735 5738 5739 5741 5743 5744 5746 5748 5750 5751 5752 5754
5688 5689 5690 5690 5691 5691 5693 5694 5695 5696 5696 5697 5698 5698 5699 5700 5701 5701 5703 5704 5705 5706 5708 5710 5712 5713 5715 5717 5719 5722 5724 5726 5728 5730 5731 5733 5734 5735 5737 5739 5740 5741 5742
5679 5679 5680 5681 5682 5682 5684 5685 5686 5687 5688 5689 5689 5690 5691 5691 5692 5692 5693 5695 5696 5697 5699 5700 5702 5704 5705 5707 5710 5712 5714 5716 5718 5720 5721 5723 5724 5725 5726 5727 5729 5730 5731
5669 5670 5671 5672 5673 5674 5675 5676 5677 5678 5679 5680 5681 5681 5682 5682 5683 5683 5684 5685 5686 5688 5689 5690 5692 5694 5696 5698 5700 5702 5704 5706 5708 5710 5711 5712 5713 5714 5715 5716 5717 5719 5720
5659 5660 5661 5662 5663 5664 5665 5666 5668 5669 5670 5671 5671 5672 5673 5673 5674 5674 5675 5676 5677 5678 5679 5680 5682 5684 5686 5687 5690 5692 5694 5696 5698 5699 5700 5701 5702 5703 5704 5705 5706 5707 5708
5648 5650 5651 5652 5653 5654 5656 5657 5658 5660 5660 5661 5662 5663 5663 5664 5665 5665 5666 5667 5668 5668 5669 5671 5672 5674 5675 5678 5679 5682 5684 5685 5687 5688 5689 5690 5691 5692 5692 5693 5694 5696 5697
5638 5639 5641 5642 5643 5644 5646 5647 5649 5650 5651 5652 5653 5653 5654 5655 5656 5656 5657 5657 5658 5659 5660 5661 5662 5664 5665 5667 5669 5671 5673 5674 5676 5677 5678 5679 5679 5680 5681 5682 5682 5683 5684
5628 5630 5631 5633 5634 5635 5636 5638 5639 5640 5641 5642 5644 5644 5645 5646 5646 5647 5647 5648 5649 5649 5650 5652 5653 5654 5655 5657 5658 5660 5662 5663 5664 5665 5666 5667 5667 5668 5669 5669 5670 5671 5671
5619 5620 5622 5623 5625 5626 5627 5628 5630 5631 5632 5633 5634 5635 5636 5636 5637 5638 5638 5638 5639 5640 5641 5642 5643 5645 5646 5647 5648 5649 5650 5651 5652 5653 5654 5655 5655 5656 5657 5657 5657 5658 5658
5610 5611 5612 5614 5615 5617 5618 5619 5620 5622 5623 5624 5625 5625 5626 5627 5627 5628 5629 5629 5630 5630 5631 5632 5634 5635 5636 5637 5638 5638 5640 5640 5641 5641 5642 5643 5643 5644 5644 5645 5645 5645 5645
5601 5602 5603 5604 5606 5607 5608 5609 5611 5612 5613 5614 5615 5616 5617 5617 5618 5618 5619 5619 5620 5621 5622 5623 5624 5625 5625 5626 5627 5627 5628 5629 5629 5630 5630 5631 5631 5632 5632 5632 5632 5632 5633
5592 5593 5594 5595 5596 5597 5598 5600 5601 5602 5603 5604 5605 5606 5607 5607 5608 5608 5609 5610 5610 5611 5612 5613 5614 5614 5615 5615 5616 5616 5617 5618 5618 5618 5618 5619 5619 5619 5619 5620 5620 5620 5620
5582 5583 5584 5585 5586 5587 5589 5590 5591 5592 5593 5594 5595 5596 5597 5597 5597 5598 5599 5600 5601 5601 5602 5603 5604 5604 5604 5604 5605 5605 5606 5606 5606 5607 5607 5607 5607 5606 5607 5607 5606 5607 5607
5573 5574 5575 5576 5577 5578 5579 5580 5581 5582 5583 5584 5584 5585 5586 5587 5587 5588 5589 5590 5590 5591 5592 5593 5593 5593 5594 5593 5593 5594 5594 5594 5594 5594 5594 5594 5594 5594 5594 5594 5594 5594 5594
5564 5565 5566 5567 5568 5569 5570 5571 5572 5572 5573 5573 5574 5575 5575 5576 5576 5577 5578 5579 5580 5580 5581 5582 5582 5582 5582 5582 5582 5582 5581 5581 5581 5581 5581 5582 5581 5581 5581 5581 5582 5582 5582
5554 5555 5556 5557 5558 5559 5560 5561 5562 5562 5563 5563 5563 5564 5564 5565 5565 5566 5567 5568 5568 5569 5570 5570 5570 5571 5571 5570 5570 5569 5569 5569 5569 5569 5569 5569 5569 5569 5569 5569 5569 5569 5569
5545 5545 5546 5547 5548 5549 5550 5551 5551 5552 5552 5553 5553 5553 5553 5554 5555 5555 5556 5557 5557 5558 5558 5559 5559 5559 5559 5558 5558 5557 5557 5557 5557 5557 5557 5557 5557 5556 5556 5556 5556 5556 5556
5535 5536 5536 5537 5538 5538 5539 5540 5541 5541 5542 5542 5542 5542 5542 5543 5544 5544 5545 5546 5546 5546 5547 5547 5547 5547 5547 5546 5546 5545 5545 5545 5545 5545 5545 5544 5544 5544 5543 5543 5543 5543 5542
5525 5526 5526 5527 5527 5528 5529 5530 5530 5531 5531 5531 5531 5531 5531 5532 5533 5534 5534 5534 5535 5535 5535 5536 5536 5536 5535 5535 5534 5534 5534 5533 5533 5533 5533 5532 5532 5531 5531 5530 5530 5529 5528
5516 5516 5516 5517 5517 5517 5518 5519 5519 5519 5520 5520 5520 5520 5520 5521 5522 5523 5523 5524 5524 5524 5524 5524 5525 5524 5524 5523 5523 5523 5522 5522 5521 5521 5520 5520 5519 5519 5518 5517 5516 5516 5515
5506 5506 5506 5506 5506 5506 5506 5507 5507 5508 5508 5508 5509 5509 5510 5510 5511 5511 5512 5512 5512 5512 5512 5513 5513 5513 5512 5512 5511 5511 5510 5510 5509 5509 5508 5508 5507 5506 5505 5505 5504 5503 5502
5496 5496 5496 5496 5496 5496 5496 5496 5496 5496 5497 5497 5498 5498 5499 5499 5500 5500 5500 5500 5501 5500 5501 5501 5501 5501 5501 5500 5500 5499 5498 5498 5497 5497 5496 5496 5495 5494 5493 5492 5491 5490 5489
5486 5486 5486 5486 5486 5486 5486 5486 5486 5486 5486 5487 5487 5488 5488 5488 5489 5489 5489 5489 5489 5489 5489 5489 5489 5489 5489 5488 5487 5487 5486 5486 5485 5484 5484 5483 5482 5482 5481 5480 5479 5477 5476